Fond du Lac, WI

3:18 AM CDT on April 21, 2018 (GMT -0500)
Fond du Lac County

Weather History for KFLD - June, 2014

Change the Weather History Date:

Tuesday, June 10, 2014

  Actual Average Record
Temperature  
Mean Temperature 62 °F -  
Max Temperature 70 °F 75 °F 94 °F (1956)
Min Temperature 55 °F 53 °F 37 °F (1980)
Degree Days  
Heating Degree Days 3    
Growing Degree Days 12 (Base 50)    
Moisture  
Dew Point 48 °F    
Average Humidity 59    
Maximum Humidity 72    
Minimum Humidity 52    
Precipitation  
Precipitation 0.00 in - - ()
Sea Level Pressure  
Sea Level Pressure 29.95 in    
Wind  
Wind Speed 5 mph (NE)    
Max Wind Speed 12 mph    
Max Gust Speed -    
Visibility 10 miles    
Events      
Averages and records for this station are not official NWS values.
T = Trace of Precipitation, MM = Missing Value Source: NWS Daily Summary

Daily Weather History Graph

Daily Weather History Graph

Search for Another Location

Airport or City:

Astronomy

Jun. 10, 2014 Rise Set
Actual Time 5:11 AM CDT 8:35 PM CDT
Civil Twilight 4:35 AM CDT 9:11 PM CDT
Nautical Twilight 3:49 AM CDT 9:58 PM CDT
Astronomical Twilight 2:50 AM CDT 10:56 PM CDT
Moon 5:56 PM CDT (6/10) 3:22 AM CDT (6/10)
Length of Visible Light 16h 35m
Length of Day
15h 23m
Waxing Gibbous, 92% of the Moon is Illuminated
Jun 10
Waxing Gibbous
Jun 12
Full
Jun 19
Last Quarter
Jun 27
New
Jul 5
First Quarter

Hourly Weather History & Observations

Time (CDT) Temp. Dew Point Humidity Pressure Visibility Wind Dir Wind Speed Gust Speed Precip Events Conditions
12:53 AM 57.0 °F 43.0 °F 59% 29.99 in 10.0 mi Calm Calm - N/A   Clear
1:53 AM 57.0 °F 43.0 °F 59% 29.99 in 10.0 mi East 4.6 mph - N/A   Clear
2:53 AM 55.9 °F 44.1 °F 64% 29.97 in 10.0 mi ENE 5.8 mph - N/A   Clear
3:53 AM 57.0 °F 43.0 °F 59% 29.97 in 10.0 mi East 5.8 mph - N/A   Clear
4:53 AM 55.0 °F 46.0 °F 72% 29.97 in 10.0 mi North 3.5 mph - N/A   Clear
5:53 AM 57.9 °F 45.0 °F 62% 29.97 in 10.0 mi ENE 6.9 mph - N/A   Clear
6:53 AM 59.0 °F 46.9 °F 64% 29.97 in 10.0 mi ENE 3.5 mph - N/A   Clear
7:53 AM 61.0 °F 46.9 °F 60% 29.98 in 10.0 mi NNE 9.2 mph - N/A   Clear
8:53 AM 63.0 °F 48.0 °F 58% 29.99 in 10.0 mi NE 10.4 mph - N/A   Clear
10:53 AM 66.9 °F 48.9 °F 52% 29.97 in 10.0 mi NE 9.2 mph - N/A   Clear
11:53 AM 68.0 °F 50.0 °F 52% 29.97 in 10.0 mi NE 10.4 mph - N/A   Clear
12:53 PM 69.1 °F 51.1 °F 53% 29.96 in 10.0 mi NE 10.4 mph - N/A   Clear
4:53 PM 68.0 °F 52.0 °F 56% 29.94 in 10.0 mi ENE 9.2 mph - N/A   Clear
5:53 PM 66.9 °F 51.1 °F 57% 29.92 in 10.0 mi ENE 6.9 mph - N/A   Clear
6:53 PM 66.0 °F 51.1 °F 59% 29.92 in 10.0 mi East 5.8 mph - N/A   Clear
7:53 PM 64.9 °F 51.1 °F 61% 29.91 in 10.0 mi ENE 5.8 mph - N/A   Mostly Cloudy
8:53 PM 64.9 °F 48.0 °F 54% 29.91 in 10.0 mi NE 11.5 mph - N/A   Mostly Cloudy
10:53 PM 63.0 °F 48.0 °F 58% 29.89 in 10.0 mi NNE 8.1 mph - N/A   Clear
11:53 PM 62.1 °F 50.0 °F 65% 29.87 in 10.0 mi East 3.5 mph - N/A   Scattered Clouds